Houghton Lake, MI

1:12 PM EDT on July 27, 2017 (GMT -0400)
Roscommon County

Weather History for KHTL - December, 2013

Change the Weather History Date:

Friday, December 13, 2013

  Actual Average Record
Temperature  
Mean Temperature 13 °F 25 °F  
Max Temperature 19 °F 31 °F 56 °F (2015)
Min Temperature 7 °F 18 °F -14 °F (1995)
Degree Days  
Heating Degree Days 52 40  
Month to date heating degree days 576 498  
Since 1 July heating degree days 2441 2381  
Moisture  
Dew Point 9 °F    
Average Humidity 75    
Maximum Humidity 88    
Minimum Humidity 61    
Precipitation  
Precipitation 0.11 in 0.05 in 0.70 in (2015)
Month to date precipitation 1.11 0.78  
Year to date precipitation 29.61 27.88  
Snow  
Snow 1.70 in 0.50 in 4.00 in (1921)
Month to date snowfall 8.3 6.6  
Since 1 July snowfall 12.1 15.7  
Snow Depth 4.00 in    
Sea Level Pressure  
Sea Level Pressure 30.18 in    
Wind  
Wind Speed 8 mph (North)    
Max Wind Speed 20 mph    
Max Gust Speed 25 mph    
Visibility 6 miles    
Events Snow    
T = Trace of Precipitation, MM = Missing Value Source: NWS Daily Summary

Daily Weather History Graph

Daily Weather History Graph

Search for Another Location

Airport or City:

Trip Planner

Search our weather history database for the weather conditions in past years. The results will help you decide how hot, cold, wet, or windy it might be!

Date:

Astronomy

Dec. 13, 2013 Rise Set
Actual Time 8:06 AM EST 4:59 PM EST
Civil Twilight 7:33 AM EST 5:32 PM EST
Nautical Twilight 6:56 AM EST 6:09 PM EST
Astronomical Twilight 6:21 AM EST 6:44 PM EST
Moon 2:47 PM EST (12/13) 4:22 AM EST (12/13)
Length of Visible Light 9h 59m
Length of Day
8h 53m
Waxing Gibbous, 88% of the Moon is Illuminated
Dec 13
Waxing Gibbous
Dec 17
Full
Dec 25
Last Quarter
Jan 1
New
Jan 7
First Quarter

Hourly Weather History & Observations

Time (EST) Temp. Windchill Dew Point Humidity Pressure Visibility Wind Dir Wind Speed Gust Speed Precip Events Conditions
12:53 AM 18.0 °F 4.8 °F 10.0 °F 71% 30.08 in 10.0 mi WNW 12.7 mph 23.0 mph N/A   Overcast
1:53 AM 18.0 °F 3.6 °F 9.0 °F 68% 30.09 in 10.0 mi WNW 15.0 mph 21.9 mph N/A   Overcast
2:53 AM 18.0 °F 3.1 °F 10.0 °F 71% 30.10 in 4.0 mi WNW 16.1 mph 24.2 mph 0.00 in Snow Light Snow
3:53 AM 17.1 °F 5.0 °F 12.0 °F 81% 30.11 in 2.5 mi WNW 10.4 mph - 0.00 in Snow Light Snow
4:04 AM 17.1 °F 5.0 °F 12.0 °F 81% 30.04 in 3.0 mi WNW 10.4 mph - 0.00 in Snow Light Snow
4:16 AM 17.1 °F 4.3 °F 12.0 °F 81% 30.04 in 1.8 mi West 11.5 mph - 0.00 in Snow Light Snow
4:24 AM 17.1 °F 3.6 °F 12.0 °F 81% 30.04 in 1.2 mi West 12.7 mph - 0.00 in Snow Light Snow
4:34 AM 17.1 °F 3.6 °F 12.9 °F 84% 30.04 in 2.0 mi West 12.7 mph - 0.00 in Snow Light Snow
4:53 AM 17.1 °F 5.0 °F 12.9 °F 84% 30.12 in 2.0 mi West 10.4 mph - 0.00 in Snow Light Snow
5:01 AM 17.1 °F 4.3 °F 12.9 °F 84% 30.05 in 2.5 mi West 11.5 mph - 0.01 in Snow Light Snow
5:08 AM 17.1 °F 4.3 °F 12.9 °F 84% 30.05 in 3.0 mi WNW 11.5 mph - 0.01 in Snow Light Snow
5:30 AM 17.1 °F 5.0 °F 12.9 °F 84% 30.05 in 3.0 mi WNW 10.4 mph - 0.01 in Snow Light Snow
5:48 AM 17.6 °F 7.3 °F 12.2 °F 79% 30.06 in 2.5 mi WNW 8.1 mph - 0.01 in Snow Light Snow
5:53 AM 17.1 °F 8.7 °F 12.9 °F 84% 30.14 in 2.5 mi WNW 5.8 mph - 0.01 in Snow Light Snow
6:13 AM 16.0 °F 5.3 °F 12.9 °F 88% 30.07 in 3.0 mi West 8.1 mph - 0.00 in Snow Light Snow
6:53 AM 16.0 °F 6.3 °F 12.9 °F 88% 30.15 in 5.0 mi WNW 6.9 mph - 0.00 in Snow Light Snow
7:25 AM 16.0 °F 7.4 °F 12.9 °F 88% 30.10 in 2.5 mi WNW 5.8 mph - 0.00 in Snow Light Snow
7:30 AM 16.0 °F 6.3 °F 12.9 °F 88% 30.10 in 3.0 mi WNW 6.9 mph - 0.00 in Snow Light Snow
7:53 AM 16.0 °F 8.8 °F 12.9 °F 88% 30.18 in 1.2 mi NNE 4.6 mph - 0.01 in Snow Light Snow
8:04 AM 16.0 °F 6.3 °F 12.0 °F 84% 30.11 in 2.0 mi North 6.9 mph - 0.00 in Snow Light Snow
8:12 AM 16.0 °F 6.3 °F 10.9 °F 81% 30.12 in 4.0 mi North 6.9 mph - 0.00 in Snow Light Snow
8:22 AM 16.0 °F 10.4 °F 12.0 °F 84% 30.12 in 2.0 mi NNE 3.5 mph - 0.00 in Snow Light Snow
8:28 AM 16.0 °F 6.3 °F 10.9 °F 81% 30.12 in 3.0 mi NNE 6.9 mph - 0.00 in Snow Light Snow
8:53 AM 15.1 °F 6.4 °F 9.0 °F 77% 30.20 in 7.0 mi North 5.8 mph - 0.00 in Snow Light Snow
9:25 AM 15.1 °F 9.4 °F 9.0 °F 77% 30.15 in 8.0 mi NNE 3.5 mph - 0.00 in Snow Light Snow
9:53 AM 15.1 °F 6.4 °F 8.1 °F 74% 30.23 in 7.0 mi NNE 5.8 mph - 0.00 in Snow Light Snow
10:35 AM 16.0 °F 7.4 °F 8.1 °F 71% 30.17 in 6.0 mi NNE 5.8 mph - 0.00 in Snow Light Snow
10:53 AM 16.0 °F 8.8 °F 9.0 °F 74% 30.25 in 4.0 mi NNE 4.6 mph - 0.00 in Snow Light Snow
10:59 AM 16.0 °F 7.4 °F 9.0 °F 74% 30.18 in 2.5 mi NNE 5.8 mph - 0.00 in Snow Light Snow
11:04 AM 15.1 °F 4.2 °F 10.0 °F 80% 30.18 in 1.5 mi NE 8.1 mph - 0.00 in Snow Light Snow
11:13 AM 15.1 °F 5.2 °F 9.0 °F 77% 30.18 in 2.0 mi ENE 6.9 mph - 0.00 in Snow Light Snow
11:22 AM 15.1 °F 5.2 °F 9.0 °F 77% 30.18 in 4.0 mi ENE 6.9 mph - 0.00 in Snow Light Snow
11:46 AM 15.1 °F 6.4 °F 7.0 °F 70% 30.18 in 10.0 mi NE 5.8 mph - 0.00 in   Overcast
11:53 AM 15.1 °F 4.2 °F 8.1 °F 74% 30.25 in 10.0 mi ENE 8.1 mph - 0.00 in   Overcast
12:53 PM 16.0 °F - 5.0 °F 62% 30.24 in 10.0 mi Calm Calm - N/A   Partly Cloudy
1:27 PM 17.1 °F 11.7 °F 6.1 °F 62% 30.17 in 10.0 mi ESE 3.5 mph - N/A   Mostly Cloudy
1:35 PM 17.1 °F 11.7 °F 6.1 °F 62% 30.17 in 10.0 mi Variable 3.5 mph - N/A   Overcast
1:53 PM 17.1 °F - 7.0 °F 65% 30.24 in 10.0 mi Calm Calm - N/A   Overcast
2:51 PM 15.8 °F 6.1 °F 6.8 °F 68% 30.18 in 10.0 mi NE 6.9 mph - N/A   Overcast
2:53 PM 16.0 °F 7.4 °F 7.0 °F 68% 30.25 in 10.0 mi NNE 5.8 mph - N/A   Overcast
3:25 PM 16.0 °F 8.8 °F 7.0 °F 68% 30.18 in 10.0 mi NNE 4.6 mph - N/A   Overcast
3:53 PM 16.0 °F 6.3 °F 7.0 °F 68% 30.27 in 10.0 mi NE 6.9 mph - N/A   Overcast
4:53 PM 16.0 °F 6.3 °F 6.1 °F 65% 30.29 in 10.0 mi ENE 6.9 mph - N/A   Overcast
5:53 PM 14.0 °F 3.9 °F 5.0 °F 67% 30.30 in 10.0 mi NE 6.9 mph - N/A   Overcast
6:53 PM 10.9 °F -3.4 °F 3.0 °F 70% 30.34 in 10.0 mi ENE 11.5 mph - N/A   Overcast
7:53 PM 10.0 °F -5.2 °F 1.9 °F 70% 30.34 in 10.0 mi ENE 12.7 mph - N/A   Overcast
8:53 PM 9.0 °F -4.2 °F 1.0 °F 70% 30.37 in 10.0 mi NE 9.2 mph - N/A   Overcast
9:53 PM 8.1 °F -4.3 °F 1.0 °F 73% 30.39 in 10.0 mi NE 8.1 mph - N/A   Overcast
10:53 PM 7.0 °F -6.6 °F -0.9 °F 70% 30.38 in 9.0 mi NE 9.2 mph - 0.00 in   Overcast
11:53 PM 7.0 °F -9.1 °F -0.9 °F 70% 30.39 in 6.0 mi ENE 12.7 mph - 0.00 in Snow Light Snow